CZ-6A DEB, 61130

Orbit data source: Space-Track

CZ-6A DEB, 61130 is space debris in LEO originally from a launch on Tue, 06 Aug 2024 UTC launched from the Taiyaun Space Center, China (TSC). Debris objects in space refer to the collection of defunct objects orbiting the Earth. Examples of debris include non-operational satellites, rocket bodies, and fragments generated from explosions, collisions, or faulty payload assembly.

Loading next visibility...
Identifier
61130, 2024-140PY
Orbit
LEO
Country
Flag of CNCN / PRC
Related business
Manufacturer
SAST
Mission
Spacecraft
Bus & Motor
Unknown
Mass
Unknown
Launch date (UTC)
2024-08-06 (2 years ago)
Launch vehicle
Unknown
Launch site
Taiyaun Space Center, China (TSC)
Object type
Payload
Rocket body
Debris
Shape & HBR
Unknown shape, 0.1 m
Radar Cross Section
Small (<0.1 m²)

Expand to show TLE details & history
Last TLE update: 14 hours ago

TLE from 14 hours ago
0 CZ-6A DEB
1 61130U 24140PY  26118.33646382  .00003520  00000-0  13136-2 0  9991
2 61130  88.6194 251.0335 0065348 246.3732 113.0595 14.30565921 87736
Epoch: 2026-04-28T08:04Z
TLE epoch observation values (Epoch: 2026-04-28T08:04:30.474Z)
Latitude
0.00005°
Longitude
-86.40671°
Altitude
811.515 km
Speed
7.438 km/s
True Right ascension
16h 44m 08s
True Declination
0° 00' 00"
Sunlit
Object was in full shadow at epoch
Visualization orbit readout
Latitude
Unknown
Longitude
Unknown
Altitude
Unknown
Speed
Unknown
Apparent Right ascension
Unknown
Apparent Declination
Unknown
Sunlit
N/A
Visualization observer readout
Local Sidereal Time
05:08:06
Azimuth
Unknown
Elevation
Unknown
Doppler factor
Unknown
Orbital elements
Apogee altitude
833.6 km
Perigee altitude
739.957 km
Semi-major axis
7,164.915 km
Eccentricity
0.00653
Inclination
88.6194°
RAAN
251.0335°
Arg. of periapsis
246.3732°
True anomaly
113.74629°
Mean anomaly
113.0595°
Eccentric anomaly
113.40311°
Mean motion
3.57871 °/min
Orbital period
100.59 mins
BSTAR
0.0013136
Loading maneuver chart data...
Computing Atmospheric mass density...

Documentation

Showing up to 5 results
|